Year,Month,Day,Hour,Minute,Value (Times are PST for insolation in W/m^2)
2009,04,30,00,00,0.00
2009,04,30,00,01,0.00
2009,04,30,00,02,0.00
2009,04,30,00,03,0.00
2009,04,30,00,04,0.00
2009,04,30,00,05,0.00
2009,04,30,00,06,0.00
2009,04,30,00,07,0.00
2009,04,30,00,08,0.00
2009,04,30,00,09,0.00
2009,04,30,00,10,0.00
2009,04,30,00,11,0.00
2009,04,30,00,12,0.00
2009,04,30,00,13,0.00
2009,04,30,00,14,0.00
2009,04,30,00,15,0.00
2009,04,30,00,16,0.00
2009,04,30,00,17,0.00
2009,04,30,00,18,0.00
2009,04,30,00,19,0.00
2009,04,30,00,20,0.00
2009,04,30,00,21,0.00
2009,04,30,00,22,0.00
2009,04,30,00,23,0.00
2009,04,30,00,24,0.00
2009,04,30,00,25,0.00
2009,04,30,00,26,0.00
2009,04,30,00,27,0.00
2009,04,30,00,28,0.00
2009,04,30,00,29,0.00
2009,04,30,00,30,0.00
2009,04,30,00,31,0.00
2009,04,30,00,32,0.00
2009,04,30,00,33,0.00
2009,04,30,00,34,0.00
2009,04,30,00,35,0.00
2009,04,30,00,36,0.00
2009,04,30,00,37,0.00
2009,04,30,00,38,0.00
2009,04,30,00,39,0.00
2009,04,30,00,40,0.00
2009,04,30,00,41,0.00
2009,04,30,00,42,0.00
2009,04,30,00,43,0.00
2009,04,30,00,44,0.00
2009,04,30,00,45,0.00
2009,04,30,00,46,0.00
2009,04,30,00,47,0.00
2009,04,30,00,48,0.00
2009,04,30,00,49,0.00
2009,04,30,00,50,0.00
2009,04,30,00,51,0.00
2009,04,30,00,52,0.00
2009,04,30,00,53,0.00
2009,04,30,00,54,0.00
2009,04,30,00,55,0.00
2009,04,30,00,56,0.00
2009,04,30,00,57,0.00
2009,04,30,00,58,0.00
2009,04,30,00,59,0.00
2009,04,30,01,00,0.00
2009,04,30,01,01,0.00
2009,04,30,01,02,0.00
2009,04,30,01,03,0.00
2009,04,30,01,04,0.00
2009,04,30,01,05,0.00
2009,04,30,01,06,0.00
2009,04,30,01,07,0.00
2009,04,30,01,08,0.00
2009,04,30,01,09,0.00
2009,04,30,01,10,0.00
2009,04,30,01,11,0.00
2009,04,30,01,12,0.00
2009,04,30,01,13,0.00
2009,04,30,01,14,0.00
2009,04,30,01,15,0.00
2009,04,30,01,16,0.00
2009,04,30,01,17,0.00
2009,04,30,01,18,0.00
2009,04,30,01,19,0.00
2009,04,30,01,20,0.00
2009,04,30,01,21,0.00
2009,04,30,01,22,0.00
2009,04,30,01,23,0.00
2009,04,30,01,24,0.00
2009,04,30,01,25,0.00
2009,04,30,01,26,0.00
2009,04,30,01,27,0.00
2009,04,30,01,28,0.00
2009,04,30,01,29,0.00
2009,04,30,01,30,0.00
2009,04,30,01,31,0.00
2009,04,30,01,32,0.00
2009,04,30,01,33,0.00
2009,04,30,01,34,0.00
2009,04,30,01,35,0.00
2009,04,30,01,36,0.00
2009,04,30,01,37,0.00
2009,04,30,01,38,0.00
2009,04,30,01,39,0.00
2009,04,30,01,40,0.00
2009,04,30,01,41,0.00
2009,04,30,01,42,0.00
2009,04,30,01,43,0.00
2009,04,30,01,44,0.00
2009,04,30,01,45,0.00
2009,04,30,01,46,0.00
2009,04,30,01,47,0.00
2009,04,30,01,48,0.00
2009,04,30,01,49,0.00
2009,04,30,01,50,0.00
2009,04,30,01,51,0.00
2009,04,30,01,52,0.00
2009,04,30,01,53,0.00
2009,04,30,01,54,0.00
2009,04,30,01,55,0.00
2009,04,30,01,56,0.00
2009,04,30,01,57,0.00
2009,04,30,01,58,0.00
2009,04,30,01,59,0.00
2009,04,30,02,00,0.00
2009,04,30,02,01,0.00
2009,04,30,02,02,0.00
2009,04,30,02,03,0.00
2009,04,30,02,04,0.00
2009,04,30,02,05,0.00
2009,04,30,02,06,0.00
2009,04,30,02,07,0.00
2009,04,30,02,08,0.00
2009,04,30,02,09,0.00
2009,04,30,02,10,0.00
2009,04,30,02,11,0.00
2009,04,30,02,12,0.00
2009,04,30,02,13,0.00
2009,04,30,02,14,0.00
2009,04,30,02,15,0.00
2009,04,30,02,16,0.00
2009,04,30,02,17,0.00
2009,04,30,02,18,0.00
2009,04,30,02,19,0.00
2009,04,30,02,20,0.00
2009,04,30,02,21,0.00
2009,04,30,02,22,0.00
2009,04,30,02,23,0.00
2009,04,30,02,24,0.00
2009,04,30,02,25,0.00
2009,04,30,02,26,0.00
2009,04,30,02,27,0.00
2009,04,30,02,28,0.00
2009,04,30,02,29,0.00
2009,04,30,02,30,0.00
2009,04,30,02,31,0.00
2009,04,30,02,32,0.00
2009,04,30,02,33,0.00
2009,04,30,02,34,0.00
2009,04,30,02,35,0.00
2009,04,30,02,36,0.00
2009,04,30,02,37,0.00
2009,04,30,02,38,0.00
2009,04,30,02,39,0.00
2009,04,30,02,40,0.00
2009,04,30,02,41,0.00
2009,04,30,02,42,0.00
2009,04,30,02,43,0.00
2009,04,30,02,44,0.00
2009,04,30,02,45,0.00
2009,04,30,02,46,0.00
2009,04,30,02,47,0.00
2009,04,30,02,48,0.00
2009,04,30,02,49,0.00
2009,04,30,02,50,0.00
2009,04,30,02,51,0.00
2009,04,30,02,52,0.00
2009,04,30,02,53,0.00
2009,04,30,02,54,0.00
2009,04,30,02,55,0.00
2009,04,30,02,56,0.00
2009,04,30,02,57,0.00
2009,04,30,02,58,0.00
2009,04,30,02,59,0.00
2009,04,30,03,00,0.00
2009,04,30,03,01,0.00
2009,04,30,03,02,0.00
2009,04,30,03,03,0.00
2009,04,30,03,04,0.00
2009,04,30,03,05,0.00
2009,04,30,03,06,0.00
2009,04,30,03,07,0.00
2009,04,30,03,08,0.00
2009,04,30,03,09,0.00
2009,04,30,03,10,0.00
2009,04,30,03,11,0.00
2009,04,30,03,12,0.00
2009,04,30,03,13,0.00
2009,04,30,03,14,0.00
2009,04,30,03,15,0.00
2009,04,30,03,16,0.00
2009,04,30,03,17,0.00
2009,04,30,03,18,0.00
2009,04,30,03,19,0.00
2009,04,30,03,20,0.00
2009,04,30,03,21,0.00
2009,04,30,03,22,0.00
2009,04,30,03,23,0.00
2009,04,30,03,24,0.00
2009,04,30,03,25,0.00
2009,04,30,03,26,0.00
2009,04,30,03,27,0.00
2009,04,30,03,28,0.00
2009,04,30,03,29,0.00
2009,04,30,03,30,0.00
2009,04,30,03,31,0.00
2009,04,30,03,32,0.00
2009,04,30,03,33,0.00
2009,04,30,03,34,0.00
2009,04,30,03,35,0.00
2009,04,30,03,36,0.00
2009,04,30,03,37,0.00
2009,04,30,03,38,0.00
2009,04,30,03,39,0.00
2009,04,30,03,40,0.00
2009,04,30,03,41,0.00
2009,04,30,03,42,0.00
2009,04,30,03,43,0.00
2009,04,30,03,44,0.00
2009,04,30,03,45,0.00
2009,04,30,03,46,0.00
2009,04,30,03,47,0.00
2009,04,30,03,48,0.00
2009,04,30,03,49,0.00
2009,04,30,03,50,0.00
2009,04,30,03,51,0.00
2009,04,30,03,52,0.00
2009,04,30,03,53,0.00
2009,04,30,03,54,0.00
2009,04,30,03,55,0.00
2009,04,30,03,56,0.00
2009,04,30,03,57,0.00
2009,04,30,03,58,0.00
2009,04,30,03,59,0.00
2009,04,30,04,00,0.00
2009,04,30,04,01,0.00
2009,04,30,04,02,0.00
2009,04,30,04,03,0.00
2009,04,30,04,04,0.00
2009,04,30,04,05,0.00
2009,04,30,04,06,0.00
2009,04,30,04,07,0.00
2009,04,30,04,08,0.00
2009,04,30,04,09,0.00
2009,04,30,04,10,0.00
2009,04,30,04,11,0.00
2009,04,30,04,12,0.00
2009,04,30,04,13,0.00
2009,04,30,04,14,0.00
2009,04,30,04,15,0.00
2009,04,30,04,16,0.00
2009,04,30,04,17,0.00
2009,04,30,04,18,0.00
2009,04,30,04,19,0.00
2009,04,30,04,20,0.00
2009,04,30,04,21,0.00
2009,04,30,04,22,0.00
2009,04,30,04,23,0.00
2009,04,30,04,24,0.00
2009,04,30,04,25,0.00
2009,04,30,04,26,0.00
2009,04,30,04,27,0.00
2009,04,30,04,28,0.00
2009,04,30,04,29,0.00
2009,04,30,04,30,0.00
2009,04,30,04,31,0.00
2009,04,30,04,32,0.00
2009,04,30,04,33,0.00
2009,04,30,04,34,0.00
2009,04,30,04,35,0.00
2009,04,30,04,36,0.00
2009,04,30,04,37,0.00
2009,04,30,04,38,0.00
2009,04,30,04,39,0.00
2009,04,30,04,40,0.00
2009,04,30,04,41,0.00
2009,04,30,04,42,0.00
2009,04,30,04,43,0.00
2009,04,30,04,44,0.00
2009,04,30,04,45,0.00
2009,04,30,04,46,0.00
2009,04,30,04,47,0.00
2009,04,30,04,48,0.00
2009,04,30,04,49,0.00
2009,04,30,04,50,0.00
2009,04,30,04,51,0.00
2009,04,30,04,52,0.00
2009,04,30,04,53,0.00
2009,04,30,04,54,0.00
2009,04,30,04,55,0.00
2009,04,30,04,56,0.00
2009,04,30,04,57,0.00
2009,04,30,04,58,0.00
2009,04,30,04,59,0.00
2009,04,30,05,00,0.00
2009,04,30,05,01,0.00
2009,04,30,05,02,0.00
2009,04,30,05,03,0.00
2009,04,30,05,04,0.00
2009,04,30,05,05,0.00
2009,04,30,05,06,0.00
2009,04,30,05,07,0.00
2009,04,30,05,08,0.00
2009,04,30,05,09,0.00
2009,04,30,05,10,0.00
2009,04,30,05,11,0.00
2009,04,30,05,12,0.00
2009,04,30,05,13,0.00
2009,04,30,05,14,0.00
2009,04,30,05,15,0.00
2009,04,30,05,16,0.00
2009,04,30,05,17,0.00
2009,04,30,05,18,0.00
2009,04,30,05,19,0.00
2009,04,30,05,20,0.00
2009,04,30,05,21,0.00
2009,04,30,05,22,0.00
2009,04,30,05,23,0.00
2009,04,30,05,24,0.00
2009,04,30,05,25,0.00
2009,04,30,05,26,0.00
2009,04,30,05,27,0.00
2009,04,30,05,28,0.00
2009,04,30,05,29,0.00
2009,04,30,05,30,0.00
2009,04,30,05,31,0.00
2009,04,30,05,32,0.00
2009,04,30,05,33,0.00
2009,04,30,05,34,0.00
2009,04,30,05,35,0.00
2009,04,30,05,36,0.00
2009,04,30,05,37,0.00
2009,04,30,05,38,0.00
2009,04,30,05,39,0.00
2009,04,30,05,40,0.00
2009,04,30,05,41,0.00
2009,04,30,05,42,0.00
2009,04,30,05,43,0.00
2009,04,30,05,44,0.00
2009,04,30,05,45,0.00
2009,04,30,05,46,0.00
2009,04,30,05,47,0.00
2009,04,30,05,48,0.00
2009,04,30,05,49,0.00
2009,04,30,05,50,0.00
2009,04,30,05,51,0.00
2009,04,30,05,52,0.00
2009,04,30,05,53,0.00
2009,04,30,05,54,0.00
2009,04,30,05,55,0.00
2009,04,30,05,56,0.00
2009,04,30,05,57,0.00
2009,04,30,05,58,0.00
2009,04,30,05,59,0.00
2009,04,30,06,00,0.00
2009,04,30,06,01,4.10
2009,04,30,06,02,5.00
2009,04,30,06,03,5.00
2009,04,30,06,04,5.70
2009,04,30,06,05,7.00
2009,04,30,06,06,8.30
2009,04,30,06,07,9.00
2009,04,30,06,08,9.00
2009,04,30,06,09,11.00
2009,04,30,06,10,11.40
2009,04,30,06,11,12.00
2009,04,30,06,12,13.30
2009,04,30,06,13,14.00
2009,04,30,06,14,15.70
2009,04,30,06,15,16.40
2009,04,30,06,16,18.00
2009,04,30,06,17,18.00
2009,04,30,06,18,18.70
2009,04,30,06,19,19.00
2009,04,30,06,20,19.00
2009,04,30,06,21,19.00
2009,04,30,06,22,19.00
2009,04,30,06,23,19.00
2009,04,30,06,24,19.00
2009,04,30,06,25,20.50
2009,04,30,06,26,21.20
2009,04,30,06,27,23.60
2009,04,30,06,28,25.00
2009,04,30,06,29,25.50
2009,04,30,06,30,26.00
2009,04,30,06,31,27.90
2009,04,30,06,32,28.20
2009,04,30,06,33,30.00
2009,04,30,06,34,30.90
2009,04,30,06,35,32.50
2009,04,30,06,36,33.00
2009,04,30,06,37,34.90
2009,04,30,06,38,37.00
2009,04,30,06,39,37.60
2009,04,30,06,40,39.50
2009,04,30,06,41,40.00
2009,04,30,06,42,41.60
2009,04,30,06,43,44.00
2009,04,30,06,44,44.40
2009,04,30,06,45,46.30
2009,04,30,06,46,47.90
2009,04,30,06,47,50.20
2009,04,30,06,48,51.00
2009,04,30,06,49,51.00
2009,04,30,06,50,54.00
2009,04,30,06,51,54.70
2009,04,30,06,52,57.10
2009,04,30,06,53,59.40
2009,04,30,06,54,61.70
2009,04,30,06,55,62.10
2009,04,30,06,56,63.40
2009,04,30,06,57,65.80
2009,04,30,06,58,68.10
2009,04,30,06,59,69.80
2009,04,30,07,00,71.80
2009,04,30,07,01,74.10
2009,04,30,07,02,76.20
2009,04,30,07,03,77.80
2009,04,30,07,04,81.40
2009,04,30,07,05,83.70
2009,04,30,07,06,89.60
2009,04,30,07,07,99.80
2009,04,30,07,08,117.40
2009,04,30,07,09,124.70
2009,04,30,07,10,137.10
2009,04,30,07,11,110.00
2009,04,30,07,12,90.50
2009,04,30,07,13,109.20
2009,04,30,07,14,90.90
2009,04,30,07,15,120.30
2009,04,30,07,16,149.80
2009,04,30,07,17,150.30
2009,04,30,07,18,155.70
2009,04,30,07,19,122.20
2009,04,30,07,20,119.20
2009,04,30,07,21,139.00
2009,04,30,07,22,154.20
2009,04,30,07,23,156.00
2009,04,30,07,24,163.00
2009,04,30,07,25,159.20
2009,04,30,07,26,166.40
2009,04,30,07,27,170.10
2009,04,30,07,28,169.60
2009,04,30,07,29,171.50
2009,04,30,07,30,178.00
2009,04,30,07,31,174.90
2009,04,30,07,32,180.20
2009,04,30,07,33,184.60
2009,04,30,07,34,187.40
2009,04,30,07,35,192.10
2009,04,30,07,36,196.70
2009,04,30,07,37,199.70
2009,04,30,07,38,202.70
2009,04,30,07,39,205.80
2009,04,30,07,40,208.40
2009,04,30,07,41,210.60
2009,04,30,07,42,213.20
2009,04,30,07,43,216.50
2009,04,30,07,44,218.80
2009,04,30,07,45,220.60
2009,04,30,07,46,222.30
2009,04,30,07,47,226.80
2009,04,30,07,48,229.10
2009,04,30,07,49,231.20
2009,04,30,07,50,234.80
2009,04,30,07,51,236.60
2009,04,30,07,52,240.10
2009,04,30,07,53,243.40
2009,04,30,07,54,246.20
2009,04,30,07,55,248.60
2009,04,30,07,56,251.30
2009,04,30,07,57,254.30
2009,04,30,07,58,257.30
2009,04,30,07,59,259.70
2009,04,30,08,00,262.50
2009,04,30,08,01,265.60
2009,04,30,08,02,267.80
2009,04,30,08,03,270.90
2009,04,30,08,04,273.60
2009,04,30,08,05,277.80
2009,04,30,08,06,279.10
2009,04,30,08,07,282.20
2009,04,30,08,08,285.90
2009,04,30,08,09,288.90
2009,04,30,08,10,292.80
2009,04,30,08,11,294.90
2009,04,30,08,12,299.30
2009,04,30,08,13,301.40
2009,04,30,08,14,304.10
2009,04,30,08,15,307.40
2009,04,30,08,16,308.80
2009,04,30,08,17,312.70
2009,04,30,08,18,315.20
2009,04,30,08,19,317.60
2009,04,30,08,20,321.10
2009,04,30,08,21,323.80
2009,04,30,08,22,326.80
2009,04,30,08,23,330.10
2009,04,30,08,24,332.50
2009,04,30,08,25,335.40
2009,04,30,08,26,338.60
2009,04,30,08,27,340.20
2009,04,30,08,28,344.20
2009,04,30,08,29,346.20
2009,04,30,08,30,350.60
2009,04,30,08,31,352.40
2009,04,30,08,32,354.00
2009,04,30,08,33,358.10
2009,04,30,08,34,359.90
2009,04,30,08,35,364.20
2009,04,30,08,36,366.90
2009,04,30,08,37,369.90
2009,04,30,08,38,372.80
2009,04,30,08,39,375.60
2009,04,30,08,40,379.80
2009,04,30,08,41,381.40
2009,04,30,08,42,385.00
2009,04,30,08,43,386.40
2009,04,30,08,44,389.30
2009,04,30,08,45,393.10
2009,04,30,08,46,396.00
2009,04,30,08,47,397.40
2009,04,30,08,48,400.20
2009,04,30,08,49,403.50
2009,04,30,08,50,406.60
2009,04,30,08,51,409.60
2009,04,30,08,52,411.00
2009,04,30,08,53,415.30
2009,04,30,08,54,417.40
2009,04,30,08,55,420.10
2009,04,30,08,56,423.40
2009,04,30,08,57,424.80
2009,04,30,08,58,429.10
2009,04,30,08,59,431.20
2009,04,30,09,00,433.60
2009,04,30,09,01,437.10
2009,04,30,09,02,438.70
2009,04,30,09,03,442.50
2009,04,30,09,04,443.20
2009,04,30,09,05,446.40
2009,04,30,09,06,448.80
2009,04,30,09,07,452.40
2009,04,30,09,08,454.80
2009,04,30,09,09,458.20
2009,04,30,09,10,461.10
2009,04,30,09,11,462.50
2009,04,30,09,12,465.60
2009,04,30,09,13,468.60
2009,04,30,09,14,470.50
2009,04,30,09,15,474.80
2009,04,30,09,16,476.40
2009,04,30,09,17,480.50
2009,04,30,09,18,483.40
2009,04,30,09,19,485.00
2009,04,30,09,20,486.50
2009,04,30,09,21,489.80
2009,04,30,09,22,492.70
2009,04,30,09,23,496.40
2009,04,30,09,24,497.90
2009,04,30,09,25,501.60
2009,04,30,09,26,503.70
2009,04,30,09,27,508.00
2009,04,30,09,28,510.30
2009,04,30,09,29,512.30
2009,04,30,09,30,514.60
2009,04,30,09,31,518.70
2009,04,30,09,32,521.60
2009,04,30,09,33,524.00
2009,04,30,09,34,527.40
2009,04,30,09,35,530.20
2009,04,30,09,36,533.50
2009,04,30,09,37,535.10
2009,04,30,09,38,538.90
2009,04,30,09,39,541.10
2009,04,30,09,40,543.50
2009,04,30,09,41,546.20
2009,04,30,09,42,549.10
2009,04,30,09,43,551.40
2009,04,30,09,44,553.50
2009,04,30,09,45,555.10
2009,04,30,09,46,557.50
2009,04,30,09,47,560.40
2009,04,30,09,48,563.50
2009,04,30,09,49,565.30
2009,04,30,09,50,566.00
2009,04,30,09,51,571.00
2009,04,30,09,52,571.90
2009,04,30,09,53,575.00
2009,04,30,09,54,576.80
2009,04,30,09,55,579.50
2009,04,30,09,56,583.80
2009,04,30,09,57,584.00
2009,04,30,09,58,585.50
2009,04,30,09,59,589.80
2009,04,30,10,00,591.00
2009,04,30,10,01,591.80
2009,04,30,10,02,595.80
2009,04,30,10,03,598.50
2009,04,30,10,04,601.70
2009,04,30,10,05,603.90
2009,04,30,10,06,605.60
2009,04,30,10,07,607.40
2009,04,30,10,08,608.00
2009,04,30,10,09,612.20
2009,04,30,10,10,614.40
2009,04,30,10,11,617.90
2009,04,30,10,12,620.30
2009,04,30,10,13,623.50
2009,04,30,10,14,626.20
2009,04,30,10,15,629.00
2009,04,30,10,16,629.70
2009,04,30,10,17,632.10
2009,04,30,10,18,634.10
2009,04,30,10,19,635.90
2009,04,30,10,20,640.00
2009,04,30,10,21,640.70
2009,04,30,10,22,643.00
2009,04,30,10,23,644.10
2009,04,30,10,24,646.20
2009,04,30,10,25,648.80
2009,04,30,10,26,650.10
2009,04,30,10,27,652.00
2009,04,30,10,28,652.80
2009,04,30,10,29,655.80
2009,04,30,10,30,657.00
2009,04,30,10,31,658.90
2009,04,30,10,32,663.40
2009,04,30,10,33,666.60
2009,04,30,10,34,668.00
2009,04,30,10,35,669.20
2009,04,30,10,36,670.80
2009,04,30,10,37,672.90
2009,04,30,10,38,675.20
2009,04,30,10,39,677.60
2009,04,30,10,40,679.50
2009,04,30,10,41,681.30
2009,04,30,10,42,682.00
2009,04,30,10,43,685.20
2009,04,30,10,44,687.20
2009,04,30,10,45,690.30
2009,04,30,10,46,693.00
2009,04,30,10,47,693.70
2009,04,30,10,48,695.60
2009,04,30,10,49,697.70
2009,04,30,10,50,700.00
2009,04,30,10,51,701.70
2009,04,30,10,52,703.00
2009,04,30,10,53,705.80
2009,04,30,10,54,707.00
2009,04,30,10,55,708.00
2009,04,30,10,56,712.00
2009,04,30,10,57,713.10
2009,04,30,10,58,715.00
2009,04,30,10,59,716.20
2009,04,30,11,00,718.50
2009,04,30,11,01,721.10
2009,04,30,11,02,722.50
2009,04,30,11,03,724.00
2009,04,30,11,04,724.00
2009,04,30,11,05,726.80
2009,04,30,11,06,728.80
2009,04,30,11,07,731.10
2009,04,30,11,08,733.80
2009,04,30,11,09,736.20
2009,04,30,11,10,736.50
2009,04,30,11,11,738.00
2009,04,30,11,12,741.50
2009,04,30,11,13,742.20
2009,04,30,11,14,744.20
2009,04,30,11,15,745.90
2009,04,30,11,16,748.20
2009,04,30,11,17,750.50
2009,04,30,11,18,751.90
2009,04,30,11,19,752.20
2009,04,30,11,20,754.60
2009,04,30,11,21,756.90
2009,04,30,11,22,758.00
2009,04,30,11,23,758.70
2009,04,30,11,24,759.00
2009,04,30,11,25,761.30
2009,04,30,11,26,763.00
2009,04,30,11,27,764.40
2009,04,30,11,28,765.50
2009,04,30,11,29,765.80
2009,04,30,11,30,768.00
2009,04,30,11,31,770.00
2009,04,30,11,32,770.70
2009,04,30,11,33,772.50
2009,04,30,11,34,774.10
2009,04,30,11,35,776.60
2009,04,30,11,36,780.10
2009,04,30,11,37,782.00
2009,04,30,11,38,782.70
2009,04,30,11,39,784.00
2009,04,30,11,40,785.20
2009,04,30,11,41,786.00
2009,04,30,11,42,786.10
2009,04,30,11,43,788.00
2009,04,30,11,44,788.40
2009,04,30,11,45,789.00
2009,04,30,11,46,790.50
2009,04,30,11,47,792.80
2009,04,30,11,48,796.10
2009,04,30,11,49,798.00
2009,04,30,11,50,798.00
2009,04,30,11,51,799.20
2009,04,30,11,52,802.00
2009,04,30,11,53,803.00
2009,04,30,11,54,805.00
2009,04,30,11,55,805.00
2009,04,30,11,56,805.00
2009,04,30,11,57,807.40
2009,04,30,11,58,809.00
2009,04,30,11,59,809.90
2009,04,30,12,00,810.20
2009,04,30,12,01,812.60
2009,04,30,12,02,814.00
2009,04,30,12,03,815.20
2009,04,30,12,04,816.80
2009,04,30,12,05,817.00
2009,04,30,12,06,819.00
2009,04,30,12,07,819.60
2009,04,30,12,08,821.00
2009,04,30,12,09,822.30
2009,04,30,12,10,823.70
2009,04,30,12,11,825.90
2009,04,30,12,12,826.30
2009,04,30,12,13,828.00
2009,04,30,12,14,828.00
2009,04,30,12,15,829.40
2009,04,30,12,16,830.80
2009,04,30,12,17,831.00
2009,04,30,12,18,830.20
2009,04,30,12,19,831.70
2009,04,30,12,20,834.10
2009,04,30,12,21,833.70
2009,04,30,12,22,834.80
2009,04,30,12,23,835.00
2009,04,30,12,24,835.40
2009,04,30,12,25,837.00
2009,04,30,12,26,837.50
2009,04,30,12,27,839.20
2009,04,30,12,28,838.20
2009,04,30,12,29,842.00
2009,04,30,12,30,842.50
2009,04,30,12,31,844.00
2009,04,30,12,32,844.00
2009,04,30,12,33,845.50
2009,04,30,12,34,846.00
2009,04,30,12,35,846.00
2009,04,30,12,36,846.20
2009,04,30,12,37,847.00
2009,04,30,12,38,847.00
2009,04,30,12,39,848.60
2009,04,30,12,40,849.00
2009,04,30,12,41,849.00
2009,04,30,12,42,849.60
2009,04,30,12,43,851.00
2009,04,30,12,44,851.00
2009,04,30,12,45,851.00
2009,04,30,12,46,851.00
2009,04,30,12,47,853.00
2009,04,30,12,48,853.30
2009,04,30,12,49,854.00
2009,04,30,12,50,854.00
2009,04,30,12,51,855.60
2009,04,30,12,52,856.00
2009,04,30,12,53,856.00
2009,04,30,12,54,856.00
2009,04,30,12,55,856.90
2009,04,30,12,56,858.00
2009,04,30,12,57,858.00
2009,04,30,12,58,858.00
2009,04,30,12,59,858.40
2009,04,30,13,00,859.30
2009,04,30,13,01,858.00
2009,04,30,13,02,859.20
2009,04,30,13,03,860.00
2009,04,30,13,04,860.00
2009,04,30,13,05,860.00
2009,04,30,13,06,860.00
2009,04,30,13,07,860.00
2009,04,30,13,08,860.00
2009,04,30,13,09,858.20
2009,04,30,13,10,858.20
2009,04,30,13,11,860.80
2009,04,30,13,12,860.40
2009,04,30,13,13,861.00
2009,04,30,13,14,860.20
2009,04,30,13,15,860.90
2009,04,30,13,16,860.00
2009,04,30,13,17,860.00
2009,04,30,13,18,860.00
2009,04,30,13,19,860.00
2009,04,30,13,20,860.00
2009,04,30,13,21,860.00
2009,04,30,13,22,860.00
2009,04,30,13,23,860.00
2009,04,30,13,24,858.10
2009,04,30,13,25,857.20
2009,04,30,13,26,858.00
2009,04,30,13,27,858.00
2009,04,30,13,28,858.00
2009,04,30,13,29,858.00
2009,04,30,13,30,857.10
2009,04,30,13,31,856.00
2009,04,30,13,32,857.60
2009,04,30,13,33,854.00
2009,04,30,13,34,856.60
2009,04,30,13,35,858.60
2009,04,30,13,36,856.00
2009,04,30,13,37,857.20
2009,04,30,13,38,854.70
2009,04,30,13,39,855.70
2009,04,30,13,40,857.30
2009,04,30,13,41,854.00
2009,04,30,13,42,854.00
2009,04,30,13,43,854.00
2009,04,30,13,44,853.20
2009,04,30,13,45,853.00
2009,04,30,13,46,853.00
2009,04,30,13,47,853.00
2009,04,30,13,48,851.90
2009,04,30,13,49,852.40
2009,04,30,13,50,851.40
2009,04,30,13,51,851.00
2009,04,30,13,52,851.00
2009,04,30,13,53,850.20
2009,04,30,13,54,849.00
2009,04,30,13,55,849.00
2009,04,30,13,56,847.20
2009,04,30,13,57,847.00
2009,04,30,13,58,847.50
2009,04,30,13,59,848.20
2009,04,30,14,00,846.50
2009,04,30,14,01,846.00
2009,04,30,14,02,846.00
2009,04,30,14,03,844.00
2009,04,30,14,04,843.40
2009,04,30,14,05,842.90
2009,04,30,14,06,841.60
2009,04,30,14,07,840.00
2009,04,30,14,08,838.10
2009,04,30,14,09,839.60
2009,04,30,14,10,838.00
2009,04,30,14,11,837.50
2009,04,30,14,12,837.00
2009,04,30,14,13,837.00
2009,04,30,14,14,837.00
2009,04,30,14,15,835.00
2009,04,30,14,16,834.40
2009,04,30,14,17,832.10
2009,04,30,14,18,830.30
2009,04,30,14,19,830.80
2009,04,30,14,20,831.00
2009,04,30,14,21,830.00
2009,04,30,14,22,829.30
2009,04,30,14,23,828.00
2009,04,30,14,24,826.60
2009,04,30,14,25,824.20
2009,04,30,14,26,825.80
2009,04,30,14,27,823.00
2009,04,30,14,28,823.00
2009,04,30,14,29,821.90
2009,04,30,14,30,819.60
2009,04,30,14,31,817.20
2009,04,30,14,32,816.90
2009,04,30,14,33,816.00
2009,04,30,14,34,816.00
2009,04,30,14,35,816.00
2009,04,30,14,36,814.70
2009,04,30,14,37,812.40
2009,04,30,14,38,811.80
2009,04,30,14,39,810.00
2009,04,30,14,40,810.00
2009,04,30,14,41,809.40
2009,04,30,14,42,809.00
2009,04,30,14,43,809.00
2009,04,30,14,44,807.00
2009,04,30,14,45,806.40
2009,04,30,14,46,804.10
2009,04,30,14,47,803.00
2009,04,30,14,48,802.20
2009,04,30,14,49,800.10
2009,04,30,14,50,799.80
2009,04,30,14,51,798.00
2009,04,30,14,52,797.20
2009,04,30,14,53,795.40
2009,04,30,14,54,793.40
2009,04,30,14,55,789.00
2009,04,30,14,56,790.60
2009,04,30,14,57,788.70
2009,04,30,14,58,788.00
2009,04,30,14,59,786.60
2009,04,30,15,00,786.00
2009,04,30,15,01,784.00
2009,04,30,15,02,782.00
2009,04,30,15,03,781.40
2009,04,30,15,04,778.40
2009,04,30,15,05,778.40
2009,04,30,15,06,777.20
2009,04,30,15,07,775.10
2009,04,30,15,08,772.80
2009,04,30,15,09,772.00
2009,04,30,15,10,770.90
2009,04,30,15,11,770.00
2009,04,30,15,12,768.20
2009,04,30,15,13,766.20
2009,04,30,15,14,764.50
2009,04,30,15,15,763.00
2009,04,30,15,16,762.00
2009,04,30,15,17,759.60
2009,04,30,15,18,758.10
2009,04,30,15,19,756.00
2009,04,30,15,20,755.40
2009,04,30,15,21,753.10
2009,04,30,15,22,752.00
2009,04,30,15,23,751.20
2009,04,30,15,24,749.40
2009,04,30,15,25,746.80
2009,04,30,15,26,744.10
2009,04,30,15,27,742.90
2009,04,30,15,28,741.60
2009,04,30,15,29,738.40
2009,04,30,15,30,738.00
2009,04,30,15,31,734.80
2009,04,30,15,32,733.00
2009,04,30,15,33,732.00
2009,04,30,15,34,729.70
2009,04,30,15,35,729.00
2009,04,30,15,36,726.00
2009,04,30,15,37,723.50
2009,04,30,15,38,721.00
2009,04,30,15,39,718.90
2009,04,30,15,40,715.80
2009,04,30,15,41,714.20
2009,04,30,15,42,714.00
2009,04,30,15,43,711.10
2009,04,30,15,44,707.60
2009,04,30,15,45,705.90
2009,04,30,15,46,703.60
2009,04,30,15,47,701.40
2009,04,30,15,48,700.00
2009,04,30,15,49,698.00
2009,04,30,15,50,698.00
2009,04,30,15,51,695.40
2009,04,30,15,52,693.00
2009,04,30,15,53,690.00
2009,04,30,15,54,688.90
2009,04,30,15,55,686.80
2009,04,30,15,56,685.20
2009,04,30,15,57,682.80
2009,04,30,15,58,680.60
2009,04,30,15,59,677.20
2009,04,30,16,00,674.80
2009,04,30,16,01,673.00
2009,04,30,16,02,672.20
2009,04,30,16,03,669.20
2009,04,30,16,04,666.50
2009,04,30,16,05,664.40
2009,04,30,16,06,662.70
2009,04,30,16,07,660.40
2009,04,30,16,08,659.00
2009,04,30,16,09,657.10
2009,04,30,16,10,652.90
2009,04,30,16,11,650.10
2009,04,30,16,12,648.80
2009,04,30,16,13,645.60
2009,04,30,16,14,640.10
2009,04,30,16,15,636.70
2009,04,30,16,16,636.00
2009,04,30,16,17,635.00
2009,04,30,16,18,632.60
2009,04,30,16,19,630.40
2009,04,30,16,20,627.60
2009,04,30,16,21,624.80
2009,04,30,16,22,622.40
2009,04,30,16,23,618.90
2009,04,30,16,24,616.60
2009,04,30,16,25,614.40
2009,04,30,16,26,611.40
2009,04,30,16,27,610.00
2009,04,30,16,28,606.70
2009,04,30,16,29,605.00
2009,04,30,16,30,603.00
2009,04,30,16,31,601.60
2009,04,30,16,32,598.50
2009,04,30,16,33,595.20
2009,04,30,16,34,592.20
2009,04,30,16,35,590.90
2009,04,30,16,36,588.50
2009,04,30,16,37,586.20
2009,04,30,16,38,584.40
2009,04,30,16,39,582.50
2009,04,30,16,40,582.00
2009,04,30,16,41,577.90
2009,04,30,16,42,576.10
2009,04,30,16,43,572.20
2009,04,30,16,44,570.50
2009,04,30,16,45,568.50
2009,04,30,16,46,564.20
2009,04,30,16,47,562.80
2009,04,30,16,48,560.40
2009,04,30,16,49,558.10
2009,04,30,16,50,555.10
2009,04,30,16,51,552.40
2009,04,30,16,52,548.20
2009,04,30,16,53,546.60
2009,04,30,16,54,544.30
2009,04,30,16,55,541.60
2009,04,30,16,56,538.70
2009,04,30,16,57,535.20
2009,04,30,16,58,533.10
2009,04,30,16,59,530.40
2009,04,30,17,00,526.70
2009,04,30,17,01,524.90
2009,04,30,17,02,521.20
2009,04,30,17,03,519.20
2009,04,30,17,04,516.90
2009,04,30,17,05,514.50
2009,04,30,17,06,510.60
2009,04,30,17,07,508.00
2009,04,30,17,08,504.50
2009,04,30,17,09,499.50